Regional Weather Roundup
Issued by NWS Kansas City/Pleasant Hill, MO

Home | Current Version | Previous Version | Text Only | Print | Product List | Glossary On
Versions: 1 2 3 4 5 6 7 8 9 10 11 12 13 14 15 16 17 18 19 20 21 22 23 24 25 26 27 28 29 30 31 32 33 34 35 36 37 38 39 40 41 42 43 44 45 46 47 48 49 50
000
ASUS43 KEAX 290304
RWREAX

WEATHER ROUNDUP FOR EASTERN KANSAS AND NORTHWEST MISSOURI
NATIONAL WEATHER SERVICE KANSAS CITY/PLEASANT HILL MO
900 PM CST WED JAN 28 2015

KSZ040-057-103>105-MOZ028-029-037-043-290400-
...KANSAS CITY METROPOLITAN AREA...

CITY           SKY/WX    TMP DP  RH WIND       PRES   REMARKS
K.C. INTL      MOCLDY    56  37  49 SW7       29.76R
K.C. DOWNTOWN  PTCLDY    62  38  40 SW7       29.75R
LEES SUMMIT    PTCLDY    61  38  42 SW13      29.77R
OLATHE - IXD   MOCLDY    55  38  52 SW7       29.79R
OLATHE - OJC   PTCLDY    60  38  43 SW7       29.78R
LAWRENCE       CLOUDY    48  33  56 W3        29.77R

$$

MOZ001>008-011>017-020>025-030>033-038>040-044>046-053-054-290400-
...NORTHERN AND CENTRAL MISSOURI...

CITY           SKY/WX    TMP DP  RH WIND       PRES   REMARKS
ST. JOSEPH     MOCLDY    51  36  56 SW9       29.74R
MOSBY          PTCLDY    61  36  39 SW8       29.74R
WARRENSBURG    PTCLDY    59  39  47 SW13      29.77R
WHITEMAN AFB   PTCLDY    56  40  55 SW13      29.77R
CLINTON        PTCLDY    63  43  48 SW13G20   29.79S
SEDALIA        CLEAR     58  39  49 S15       29.78R
WARSAW         NOT AVBL
MARSHALL       CLEAR     61  41  48 S9        29.76R
CHILLICOTHE      N/A     55  40  56 SW6       29.71R
MOBERLY        PTCLDY    54  36  50 S17G25    29.74S
KIRKSVILLE     CLEAR     52  38  58 S15       29.69F

$$

MOZ041-047>049-056>058-063>065-088>090-097-290400-
...EASTERN AND SOUTHERN MISSOURI...

CITY           SKY/WX    TMP DP  RH WIND       PRES   REMARKS
ST. LOUIS INTL CLOUDY    47  33  58 S12G21    29.89F
SPIRIT OF STL  CLOUDY    47  33  58 S10G17    29.86F
COLUMBIA       MOCLDY    51  36  56 S18       29.78F
JEFFERSON CITY MOCLDY    54  35  48 S10       29.81F
MEXICO         CLOUDY    50  39  66 S20       29.77F
HANNIBAL       MOCLDY    48  32  53 S13G18    29.76S
ROLLA          CLOUDY    47  34  60 S17G28    29.84F
LEBANON        PTCLDY    54  37  54 S16G24    29.86S
OSAGE BEACH    MOCLDY    54  36  50 S10G18    29.83S
SPRINGFIELD    CLEAR     56  39  53 S14       29.86F
BRANSON        MOCLDY    54  41  62 SE7       29.93S
NEVADA         PTCLDY    59  43  55 SW13G18   29.83S
JOPLIN         CLEAR     63  41  44 S16       29.87R
WEST PLAINS    CLOUDY    47  35  63 S8        29.96F

$$

IAZ060-094-KSZ022-034>040-054-083-096-NEZ052-066-093-290400-
...KANSAS...SOUTHEAST NEBRASKA AND IOWA...

CITY           SKY/WX    TMP DP  RH WIND       PRES   REMARKS
TOPEKA         MOCLDY    57  34  41 NW5       29.79R
MANHATTAN      CLEAR     59  34  39 W8        29.83R
EMPORIA        MOCLDY    60  34  37 W13       29.82R
CHANUTE        CLOUDY    59  39  47 SW8       29.84R
WICHITA        MOCLDY    55  33  43 W10       29.91R
OMAHA          MOCLDY    49  38  65 NW25G40   29.79R
LINCOLN        PTCLDY    54  35  48 NW24G31   29.85R
FALLS CITY     CLEAR     53  34  48 NW17      29.76R
LAMONI         CLEAR     48  37  65 W13       29.67R
DES MOINES     CLEAR     41  34  76 NE5       29.68R

$$




USA.gov is the U.S. government's official web portal to all federal, state and local government web resources and services.